STARLINK-32420, 61931

Orbit data source: Space-Track

STARLINK-32420, 61931 is a payload satellite owned by SpaceX/Seattle (US) in LEO that was launched on Mon, 11 Nov 2024 UTC via an FALCON 9 launch vehicle from the Air Force Eastern Test Range (AFETR). Payload-class satellites include a variety of spacecraft equipped with specific instruments for various scientific and technological missions. These include communications satellites like Starlink; space stations such as the ISS; scientific satellites like the Hubble; Earth observation satellites from companies like Planet Labs, Umbra, and HawkEye 360; GPS; miniature CubeSats for education and research; and military/defense satellites.

Loading next visibility...
Identifier
61931, 2024-207V
Orbit
LEO
Country
Flag of USUS
Related business
Manufacturer
SpaceX/Seattle
Mission
Operational Commercial Communications
Bus & Motor
STARLINK V2M, Unknown motor
Mass
730 kg wet, ~700 kg dry
Launch date (UTC)
2024-11-11 (2 years ago)
Launch vehicle
FALCON 9
Launch site
Air Force Eastern Test Range (AFETR)
Object type
Payload
Rocket body
Debris
Shape & HBR
Box + 2 Pan, 17.7 m
Radar Cross Section
33.884 m², Large (>1 m²)

Expand to show TLE details & history
Last TLE update: 1 day ago

TLE from 1 day ago
0 STARLINK-32420
1 61931U 24207V   26207.42833356  .00016005  00000-0  58956-3 0  9994
2 61931  43.0042 217.9416 0003098 291.0131  69.0389 15.27596301 95943
Epoch: 2026-07-26T10:16Z
TLE epoch observation values (Epoch: 2026-07-26T10:16:48.019Z)
Latitude
-0.00004°
Longitude
119.61508°
Altitude
482.016 km
Speed
7.627 km/s
True Right ascension
14h 31m 45s
True Declination
0° 00' 00"
Sunlit
Object was in daylight at epoch
Visualization orbit readout
Latitude
Unknown
Longitude
Unknown
Altitude
Unknown
Speed
Unknown
Apparent Right ascension
Unknown
Apparent Declination
Unknown
Sunlit
N/A
Visualization observer readout
Local Sidereal Time
01:12:18
Azimuth
Unknown
Elevation
Unknown
Doppler factor
Unknown
Orbital elements
Apogee altitude
487.071 km
Perigee altitude
482.819 km
Semi-major axis
6,863.082 km
Eccentricity
0.00031
Inclination
43.0042°
RAAN
217.9416°
Arg. of periapsis
291.0131°
True anomaly
69.07206°
Mean anomaly
69.0389°
Eccentric anomaly
69.05548°
Mean motion
3.81737 °/min
Orbital period
94.31 mins
BSTAR
0.00058956
Loading maneuver chart data...
Computing Atmospheric mass density...
Loading historical data...
Loading historical data...
Loading historical data...
Loading historical data...
Loading historical data...
Loading historical data...
Loading historical data...

Documentation

Showing up to 5 results
|